Rbgn^[z[y[W
メイン
   新天体発見情報
     Comet P/2021 N2 (Fuls)
投稿するにはまず登録を

フラット表示 前のトピック | 次のトピック
投稿者 スレッド
佐藤裕久
投稿日時: 2021-7-25 22:40
モデレータ
登録日: 2005-6-12
居住地: 日本
投稿: 2255
オンライン
Comet P/2021 N2 (Fuls)

David Carson Fuls (月惑星研究所, アリゾナ大学)の通報によると、7月9日、Catalinaスカイ
サーベイの0.68-m Schmidt反射望遠鏡で得たCCD画像から彗星を発見した。
Fulsはこの彗星は、外観は非常に集光し、p.a.270°に向かって非常にわずか伸びていると記述
した。発見前の6月27日のCatalina観測が確認された。
小惑星センターのPCCP webpageに公表後、E. Guido (Castellammare di Stabia, イタリア、7月
10.15-10.16日UT, フィルターなし60秒露出28枚のスタック, "Telescope Live" の0.7-m f/8 
Ritchey-Chretien 反射望遠鏡, Oria, Almeria, スペイン, 遠隔操作:こじんまりした約8"のコマ
が見え、p.a. 250°に10"尾のがある。光度は17.9-18.3等)や佐藤英貴氏(東京都文京区, 7月10.43日UT, 
60秒露出8枚のスタック, 0.43-m f/6.8 アストログラフ, Mayhill近郊, ニューメキシコ州, 
米国, 遠隔操作: 強く集光した8"のコマが見え、p.a. 270°に向かって10"の尾の気配がある。
5".7の円形範囲で測定した光度は18.2等であった)らCCD位置観測者によって彗星状と観測された。

彗星機能の報告は次のとおり、

OC   Date        Reporter           Coma    Tail    PA          Exposures
Z08  2021-07-10  E. Guido           8"      10"     250           28x60s
J04  2021-07-10  R. Kreskin         3"      10"     250
G40  2021-07-11  N. Paul            9"      14"     240
L81  2021-07-12  A. Aletti          7"      10"     260           20x90s
L81  2021-07-15  E. Bryssinck       8"      11"     259           20x120s

発見位置は次のとおり、

     2021 UT             R.A. (2000) Decl.       Mag.   Observer
     July  9.43635    2 00 39.07   +17 24 23.0   18.3   Fuls
           9.44163    2 00 39.43   +17 24 24.7   18.4     "
           9.44692    2 00 39.64   +17 24 25.6   18.2     "
           9.45221    2 00 39.92   +17 24 27.2   18.3     "

MPCの楕円軌道要素、位置推算表は次のとおり、

Orbital elements:
    P/2021 N2 (Fuls)                                                            
Epoch 2021 Nov. 2.0 TT = JDT 2459520.5                                          
T 2021 Oct. 28.30565 TT                                 Rudenko                 
q   3.8266139            (2000.0)            P               Q                  
n   0.05000124     Peri.  174.65752     +0.80131030     -0.57908217             
a   7.2970762      Node   221.93429     +0.54022144     +0.80828360             
e   0.4755963      Incl.   12.99022     +0.25702647     +0.10649631             
P  19.7                                                                         
From 64 observations 2021 June 27-July 15, mean residual 0".3.                  
                                                                                
    P/2021 N2 (Fuls)                                                            
Epoch 2021 July 5.0 TT = JDT 2459400.5                                          
T 2021 Oct. 28.17195 TT                                 Rudenko                 
q   3.8266810            (2000.0)            P               Q                  
n   0.04999390     Peri.  174.63563     +0.80152532     -0.57878525             
a   7.2977903      Node   221.93489     +0.53992044     +0.80848272             
e   0.4756384      Incl.   12.98982     +0.25698848     +0.10659889             
P  19.7                                                                         
From 64 observations 2021 June 27-July 15, mean residual 0".3.                  
                                                                                
Ephemeris:
Date    TT    R. A. (2000) Decl.     Delta      r    Elong.  Phase   m1
2021 06 15    01 37 28.5 +15 40 22   4.3940  3.9129    55.7    12.4  18.6
...
2021 06 30    01 52 10.8 +16 48 00   4.1918  3.8951    66.2    13.8  18.5
...
2021 07 08    01 59 24.3 +17 19 12   4.0776  3.8864    72.0    14.4  18.4
...
2021 07 14    02 04 29.1 +17 40 04   3.9899  3.8802    76.5    14.8  18.4
2021 07 15    02 05 18.1 +17 43 19   3.9751  3.8792    77.2    14.8  18.4
2021 07 16    02 06 06.5 +17 46 31   3.9603  3.8783    78.0    14.9  18.4
...
2021 07 22    02 10 44.6 +18 04 14   3.8710  3.8725    82.5    15.1  18.3
...
2021 07 30    02 16 20.8 +18 23 55   3.7510  3.8654    88.8    15.2  18.2
...
2021 08 14    02 24 46.8 +18 47 26   3.5279  3.8537   101.1    14.9  18.1

(MPEC 2021-N137、CBET 5000)

フラット表示 前のトピック | 次のトピック

題名 投稿者 日時
 » Comet P/2021 N2 (Fuls) 佐藤裕久 2021-7-25 22:40

投稿するにはまず登録を
 
© 1999 Tsutomu Seki.